TimeEST,TemperatureF,Dew PointF,Humidity,Sea Level PressureIn,VisibilityMPH,Wind Direction,Wind SpeedMPH,Gust SpeedMPH,PrecipitationIn,Events,Conditions,WindDirDegrees,DateUTC
12:53 AM,10.9,6.1,81,30.42,10.0,Calm,Calm,-,N/A,,Mostly Cloudy,0,2013-12-26 05:53:00
1:53 AM,14.0,9.0,80,30.41,7.0,Calm,Calm,-,N/A,,Overcast,0,2013-12-26 06:53:00
2:53 AM,16.0,10.9,81,30.40,10.0,Calm,Calm,-,0.00,,Overcast,0,2013-12-26 07:53:00
3:53 AM,15.1,10.0,80,30.38,10.0,Calm,Calm,-,N/A,,Overcast,0,2013-12-26 08:53:00
4:43 AM,15.8,10.4,79,30.31,2.5,Calm,Calm,-,0.00,Snow,Light Snow,0,2013-12-26 09:43:00
4:53 AM,15.1,10.0,80,30.35,5.0,Calm,Calm,-,0.00,Snow,Light Snow,0,2013-12-26 09:53:00
5:08 AM,15.8,10.4,79,30.30,6.0,Calm,Calm,-,0.00,Snow,Light Snow,0,2013-12-26 10:08:00
5:53 AM,16.0,10.9,81,30.32,10.0,Calm,Calm,-,0.00,,Overcast,0,2013-12-26 10:53:00
6:53 AM,17.1,12.9,84,30.30,10.0,Calm,Calm,-,N/A,,Overcast,0,2013-12-26 11:53:00
7:53 AM,18.0,12.9,81,30.29,6.0,Calm,Calm,-,N/A,,Haze,0,2013-12-26 12:53:00
8:27 AM,19.4,15.8,86,30.24,2.0,North,3.5,-,0.00,Snow,Light Snow,350,2013-12-26 13:27:00
8:36 AM,19.4,15.8,86,30.24,1.2,Calm,Calm,-,0.00,Snow,Light Snow,0,2013-12-26 13:36:00
8:43 AM,19.4,15.8,86,30.23,1.0,Calm,Calm,-,0.00,Snow,Light Snow,0,2013-12-26 13:43:00
8:51 AM,19.4,15.8,86,30.23,0.8,Calm,Calm,-,0.00,Snow,Light Snow,0,2013-12-26 13:51:00
8:53 AM,19.9,16.0,85,30.27,0.8,Calm,Calm,-,0.00,Snow,Light Snow,0,2013-12-26 13:53:00
9:04 AM,19.4,17.6,93,30.23,1.0,Calm,Calm,-,0.00,Snow,Light Snow,0,2013-12-26 14:04:00
9:14 AM,19.4,17.6,93,30.23,0.8,Calm,Calm,-,0.00,Snow,Light Snow,0,2013-12-26 14:14:00
9:32 AM,21.2,17.6,86,30.22,0.5,Calm,Calm,-,0.01,Fog-Snow,Snow,0,2013-12-26 14:32:00
9:53 AM,21.9,19.0,89,30.25,0.8,Calm,Calm,-,0.01,Snow,Light Snow,0,2013-12-26 14:53:00
10:00 AM,21.2,19.4,93,30.21,0.8,Calm,Calm,-,0.00,Snow,Light Snow,0,2013-12-26 15:00:00
10:24 AM,24.8,19.4,80,30.20,1.0,WSW,3.5,-,0.01,Snow,Light Snow,240,2013-12-26 15:24:00
10:53 AM,25.0,21.0,85,30.22,1.0,SW,4.6,-,0.01,Snow,Light Snow,230,2013-12-26 15:53:00
11:53 AM,25.0,21.9,88,30.18,1.2,SSW,6.9,-,0.00,Snow,Light Snow,210,2013-12-26 16:53:00
12:17 PM,26.6,21.2,80,30.13,2.0,SSW,5.8,-,0.00,Snow,Light Snow,200,2013-12-26 17:17:00
12:27 PM,26.6,21.2,80,30.12,1.8,SW,6.9,-,0.00,Snow,Light Snow,220,2013-12-26 17:27:00
12:35 PM,26.6,21.2,80,30.12,2.0,SW,5.8,-,0.00,Snow,Light Snow,220,2013-12-26 17:35:00
12:42 PM,26.6,21.2,80,30.11,1.5,SSW,5.8,-,0.00,Snow,Light Snow,210,2013-12-26 17:42:00
12:48 PM,26.6,21.2,80,30.11,2.0,SW,8.1,-,0.00,Snow,Light Snow,230,2013-12-26 17:48:00
12:53 PM,26.1,21.9,84,30.15,2.5,SSW,6.9,-,0.00,Snow,Light Snow,210,2013-12-26 17:53:00
1:07 PM,26.6,23.0,86,30.10,3.0,SSW,4.6,-,0.00,Snow,Light Snow,210,2013-12-26 18:07:00
1:24 PM,26.6,21.2,80,30.10,2.5,SSW,6.9,-,0.00,Snow,Light Snow,210,2013-12-26 18:24:00
1:31 PM,26.6,21.2,80,30.10,4.0,SSW,6.9,-,0.00,Snow,Light Snow,200,2013-12-26 18:31:00
1:53 PM,27.0,21.9,81,30.14,6.0,South,6.9,-,0.00,,Haze,180,2013-12-26 18:53:00
2:08 PM,28.4,21.2,74,30.10,4.0,South,9.2,-,0.00,Snow,Light Snow,190,2013-12-26 19:08:00
2:53 PM,28.0,23.0,81,30.14,4.0,South,4.6,-,0.00,,Haze,180,2013-12-26 19:53:00
3:06 PM,28.4,23.0,80,30.11,2.0,South,4.6,-,0.00,Snow,Light Snow,190,2013-12-26 20:06:00
3:11 PM,28.4,23.0,80,30.11,1.8,SSW,4.6,-,0.00,Snow,Light Snow,200,2013-12-26 20:11:00
3:20 PM,28.4,23.0,80,30.11,2.5,South,4.6,-,0.00,,Haze,170,2013-12-26 20:20:00
3:29 PM,28.4,23.0,80,30.11,3.0,South,5.8,-,0.00,,Haze,180,2013-12-26 20:29:00
3:49 PM,28.4,24.8,86,30.11,10.0,Calm,Calm,-,0.00,,Overcast,0,2013-12-26 20:49:00
3:53 PM,28.0,24.1,85,30.15,10.0,South,3.5,-,0.00,,Overcast,180,2013-12-26 20:53:00
4:18 PM,28.4,24.8,86,30.12,10.0,South,5.8,-,N/A,,Overcast,190,2013-12-26 21:18:00
4:53 PM,28.0,24.1,85,30.17,5.0,SSW,4.6,-,N/A,,Overcast,200,2013-12-26 21:53:00
5:53 PM,28.0,24.1,85,30.19,6.0,South,5.8,-,N/A,,Overcast,190,2013-12-26 22:53:00
6:53 PM,25.0,23.0,92,30.21,8.0,South,5.8,-,N/A,,Overcast,190,2013-12-26 23:53:00
7:53 PM,21.9,19.9,92,30.22,6.0,SSW,3.5,-,N/A,,Mostly Cloudy,210,2013-12-27 00:53:00
8:53 PM,27.0,24.1,89,30.22,8.0,South,6.9,-,N/A,,Overcast,190,2013-12-27 01:53:00
9:53 PM,26.1,23.0,88,30.22,3.0,SSW,8.1,-,N/A,,Mostly Cloudy,210,2013-12-27 02:53:00
10:53 PM,26.1,23.0,88,30.23,7.0,South,5.8,-,N/A,,Overcast,190,2013-12-27 03:53:00
11:53 PM,28.0,21.9,78,30.22,10.0,SW,6.9,-,N/A,,Overcast,220,2013-12-27 04:53:00